STARLINK-31890, 59785

Orbit data source: Space-Track

STARLINK-31890, 59785 is a payload satellite owned by SpaceX/Seattle (US) in LEO that was launched on Sat, 18 May 2024 UTC via an FALCON 9 launch vehicle from the Air Force Eastern Test Range (AFETR). Payload-class satellites include a variety of spacecraft equipped with specific instruments for various scientific and technological missions. These include communications satellites like Starlink; space stations such as the ISS; scientific satellites like the Hubble; Earth observation satellites from companies like Planet Labs, Umbra, and HawkEye 360; GPS; miniature CubeSats for education and research; and military/defense satellites.

Loading next visibility...
Identifier
59785, 2024-093D
Orbit
LEO
Last TLE update
8 hours ago
Origin
Manufacturer
SpaceX/Seattle
Mission
Operational spacecraft
Bus & Motor
STARLINK V2M, Unknown motor
Mass
730 kg wet, ~700 kg dry
Launch date (UTC)
2024-05-18 (1 year ago)
Launch vehicle
FALCON 9
Launch site
Air Force Eastern Test Range (AFETR)
Object type
Payload
Rocket body
Debris
Shape & HBR
Unknown
Radar Cross Section
Large (>1 m²)

Expand to show TLE details & history

TLE from 8 hours ago
0 STARLINK-31890
1 59785U 24093D   25182.07316674  .00000592  00000-0  31034-4 0  9995
2 59785  43.0029 186.4572 0001603 277.4575  82.6094 15.27580685 64235
Epoch: 2025-07-01T01:45Z
TLE epoch observation values (Epoch: 2025-07-01T01:45:21.606Z)
Latitude
-0.00005°
Longitude
-119.25674°
Altitude
482.681 km
Speed
7.626 km/s
True Right ascension
12h 25m 49s
True Declination
0° 00' 00"
Sunlit
Object was in daylight at epoch
Visualization orbit readout
Latitude
34.40628°
Longitude
-74.24864°
Altitude
485.182 km
Speed
7.627 km/s
Apparent Right ascension
12h 43m 52s
Apparent Declination
-1° 37' 02"
Sunlit
Object is in daylight
Visualization observer readout
Local Sidereal Time
21:29:01
Azimuth
298.131° NW
Elevation
-31.601°
Doppler factor
1
Orbital elements
Apogee altitude
486.092 km
Perigee altitude
483.892 km
Semi-major axis
6,863.129 km
Eccentricity
0.00016
Inclination
43.0029°
RAAN
186.4572°
Arg. of periapsis
277.4575°
True anomaly
Unknown
Mean anomaly
82.6094°
Eccentric anomaly
Unknown
Mean motion
3.81733 °/min
Orbital period
94.31 mins
BSTAR
0.000031034
Loading maneuver chart data...
Loading SW <> Apogee altitude chart data...
Loading historical data...
Loading historical data...
Loading historical data...
Loading historical data...
Loading historical data...
Loading historical data...
Loading historical data...

STARLINK-31890 Visibility forecast

Observer location: undefined°, undefined°

Span
Click to sort rows by Start time (UTC) header in descending order
Start Az.
Max El. time (UTC)
Max El. Az.
Max El.
End time (UTC)
End Az.
5 mins2025-07-01 10:06:40.664Z265.399° W2025-07-01 10:09:40.664Z211.413° SW20.069°2025-07-01 10:11:40.664Z172.564° S
4 mins2025-07-02 03:04:40.664Z184.665° SSW2025-07-02 03:05:40.664Z161.06° S23.846°2025-07-02 03:08:40.664Z94.711° ESE
5 mins2025-07-02 04:42:40.664Z257.72° W2025-07-02 04:44:40.664Z297.119° NW44.215°2025-07-02 04:47:40.664Z70.195° E
6 mins2025-07-02 06:21:40.664Z290.814° WNW2025-07-02 06:23:40.664Z338.608° N37.101°2025-07-02 06:27:40.664Z78.752° E
6 mins2025-07-02 08:00:40.664Z287.862° WNW2025-07-02 08:02:40.664Z285.405° WNW42.381°2025-07-02 08:06:40.664Z109.999° ESE
4 mins2025-07-02 09:40:40.664Z240.637° WSW2025-07-02 09:41:40.664Z217.768° SW20.539°2025-07-02 09:44:40.664Z163.337° S
|